Theta_e
318 313 312 311 312 313 314 315 315 315 316 317 316 316 316 319 319 318 320 321 323 322 323 323 324 342 349 350 349 349 349 349 348 348 347 345 348 347 344 344 345 344 348 346
314 312 312 313 313 314 315 315 315 314 316 315 316 316 316 316 318 321 321 319 322 322 323 323 323 343 349 350 349 348 348 349 349 349 348 347 347 346 344 346 347 348 347 344
314 315 316 315 315 315 314 315 315 315 317 316 315 315 316 316 317 319 321 322 322 322 323 323 324 337 350 350 349 349 349 349 349 349 349 348 347 347 345 348 350 347 343 336
315 316 317 317 316 317 316 316 317 317 317 315 316 317 314 315 315 316 319 321 322 322 323 323 323 336 348 351 351 351 350 349 349 349 348 345 347 344 344 347 344 342 337 323
317 318 317 317 317 318 317 318 317 318 316 314 316 313 313 314 316 315 315 320 321 322 323 323 322 328 340 351 351 350 348 349 347 348 346 341 342 338 340 347 341 339 332 325
316 318 318 317 318 318 318 317 316 315 313 316 314 314 314 315 317 316 317 319 323 325 327 328 322 325 335 351 351 350 350 349 340 346 345 341 344 338 342 345 341 339 331 326
316 317 317 316 314 313 315 318 319 318 316 316 313 315 313 322 325 322 318 318 318 320 328 333 339 335 332 346 349 350 350 350 350 349 349 349 347 339 337 344 345 341 330 327
318 318 316 313 312 312 314 321 322 322 318 317 315 316 316 325 324 323 321 319 317 322 324 331 334 342 348 349 349 348 349 350 349 349 348 348 346 346 346 343 341 338 330 323
312 317 313 312 313 312 311 312 312 320 320 319 317 319 323 324 324 322 320 319 318 318 323 326 331 333 336 341 344 345 346 347 347 346 347 346 345 345 347 344 343 340 334 327
309 310 311 311 313 311 310 310 316 322 324 323 320 320 324 324 322 321 318 317 317 318 319 321 327 330 331 333 335 336 341 337 341 343 344 344 344 344 342 336 337 339 337 332
308 308 309 310 310 310 310 309 308 314 324 326 324 319 325 322 320 319 318 317 315 319 319 317 322 328 329 331 334 334 334 334 333 336 341 340 338 335 335 336 335 339 336 333
308 306 307 308 308 309 309 309 308 309 311 318 323 319 323 321 319 319 317 315 316 316 318 318 318 321 327 327 327 328 332 335 336 334 333 331 333 328 328 332 338 337 336 332
306 303 303 303 305 307 308 308 309 307 307 311 315 314 323 322 320 319 319 320 320 316 317 319 319 319 324 325 324 325 324 327 333 336 336 334 335 331 330 340 341 340 338 334
306 304 303 302 304 306 308 308 308 307 307 307 308 308 307 314 320 319 320 319 317 316 314 316 315 315 320 321 320 323 324 323 323 330 336 337 333 335 336 338 328 327 334 335
304 305 307 308 310 310 308 308 308 308 308 308 307 307 306 305 307 314 316 313 314 316 316 314 313 316 311 314 319 320 322 323 322 322 332 336 335 330 337 337 337 325 328 334
306 306 308 308 309 308 308 307 307 307 308 307 307 306 309 310 310 310 310 313 314 316 316 316 311 315 315 311 314 319 322 324 324 323 326 334 333 330 331 331 330 332 331 331
306 305 306 307 307 307 306 306 307 307 308 309 311 310 309 309 309 310 310 311 313 315 315 315 311 315 312 311 311 314 317 323 324 324 324 328 331 333 332 330 331 326 332 330
303 304 303 305 304 306 305 308 310 309 310 310 310 309 308 308 309 311 310 311 311 311 312 311 311 311 310 310 309 308 310 312 322 324 323 323 327 332 328 328 332 323 323 327
303 302 304 303 305 305 306 309 308 309 309 308 308 308 308 308 308 309 309 309 310 311 311 311 311 311 311 310 311 311 311 315 319 322 322 322 323 322 332 332 327 325 327 333
304 304 304 303 303 302 306 309 308 308 307 309 308 308 308 308 307 306 308 307 308 309 311 310 311 310 309 309 310 311 314 316 317 316 318 320 321 320 321 330 333 334 334 335
306 307 305 303 308 308 310 309 308 310 307 307 307 307 306 305 306 306 306 305 305 306 309 310 310 310 310 310 309 309 310 311 312 313 314 314 318 318 318 323 329 330 331 332
307 304 304 302 301 309 308 308 308 305 306 305 304 304 304 303 303 304 304 304 305 305 305 309 310 310 309 310 310 309 308 309 311 313 315 315 317 316 315 321 323 329 330 331
304 307 306 306 304 307 307 306 306 304 303 303 303 304 303 303 303 303 303 303 304 304 306 306 309 309 309 309 309 309 309 309 309 313 312 312 314 316 318 319 321 328 329 330
304 306 305 307 306 306 305 305 305 303 303 303 303 304 304 304 303 302 302 303 304 304 305 306 307 309 309 309 308 308 308 309 310 311 313 313 313 316 318 318 318 322 324 326
303 304 303 304 305 306 305 305 304 304 304 304 304 303 302 303 303 302 303 304 305 305 304 305 306 308 309 308 308 307 307 309 310 312 311 311 313 315 315 317 318 320 321 322
304 304 304 303 305 305 305 305 305 305 305 305 305 304 303 302 303 303 304 306 306 305 304 305 307 308 308 308 308 308 308 309 310 309 311 310 311 314 316 316 316 318 318 319
Wind_Speed
6 2 7 10 9 9 7 6 7 9 14 4 8 7 11 21 14 18 30 38 35 32 23 26 27 40 36 42 42 42 41 40 38 38 36 34 30 27 25 25 24 20 22 20
3 6 12 8 9 8 9 9 12 10 12 7 8 8 9 6 8 15 18 28 32 24 17 15 19 40 43 46 47 46 43 44 44 40 39 39 35 31 27 25 26 24 24 21
8 10 12 12 12 11 13 13 13 15 16 6 5 8 4 8 8 19 21 18 18 19 20 20 16 33 49 51 52 48 46 46 46 42 40 38 37 33 31 29 31 30 25 22
6 12 11 12 10 13 13 11 16 10 4 6 4 13 5 6 10 6 17 23 27 29 30 29 23 24 50 57 52 47 45 46 45 45 44 43 45 45 42 38 34 28 21 22
7 4 7 7 6 5 9 11 15 13 7 5 3 1 7 4 8 11 12 23 25 25 27 36 35 28 38 59 53 49 48 48 44 47 44 45 47 44 43 37 32 26 22 21
5 5 3 5 7 4 6 5 3 1 2 9 6 6 2 2 5 8 14 28 31 26 24 21 23 27 34 53 54 53 53 51 47 46 47 46 49 48 45 40 35 30 25 24
3 3 1 8 6 8 9 6 4 4 2 6 8 3 6 6 10 10 15 27 33 41 45 40 23 24 34 50 55 51 52 44 40 39 38 40 40 49 49 47 42 35 31 30
2 1 5 9 5 3 4 2 3 5 2 4 5 5 4 4 9 19 23 19 36 47 46 42 43 21 10 22 28 34 36 34 29 35 34 38 39 44 48 48 46 39 36 32
3 2 4 16 7 6 7 5 7 4 3 1 4 2 2 7 10 16 22 30 30 39 44 45 42 38 31 12 16 20 22 28 33 37 32 35 35 35 47 50 46 40 32 31
2 3 6 6 7 14 7 8 5 4 5 4 4 3 1 7 8 8 15 17 25 37 40 41 44 37 32 27 19 2 10 11 23 29 40 37 17 34 43 44 45 41 36 32
2 3 5 5 6 6 2 3 3 2 5 2 3 4 2 2 1 3 6 14 20 25 33 38 35 34 31 27 24 18 8 4 14 23 30 28 29 35 33 38 46 47 40 30
2 3 0 2 5 7 2 4 4 3 5 3 4 6 4 5 6 5 8 10 13 18 15 23 29 30 29 29 26 25 21 8 10 14 21 29 37 35 43 48 57 46 37 37
2 2 3 6 6 5 3 7 5 4 1 3 2 4 5 4 5 4 2 7 12 11 8 7 12 20 27 25 26 24 22 19 17 16 18 23 35 41 48 46 41 43 45 43
6 3 5 4 4 3 7 8 8 2 1 2 4 6 11 5 7 10 13 17 19 15 6 2 11 7 1 17 20 18 21 23 25 22 20 28 33 35 44 40 25 28 47 49
4 1 0 2 5 5 8 11 8 9 6 4 6 4 7 13 8 15 23 21 19 18 14 10 10 9 9 10 5 6 13 19 23 26 21 13 27 36 40 43 50 34 40 43
2 1 4 4 5 6 9 11 9 7 6 7 7 3 9 14 22 25 22 22 18 18 19 17 6 12 11 4 5 6 15 17 19 20 21 14 10 30 31 34 39 32 32 36
5 4 3 5 4 6 6 4 3 5 5 2 3 3 8 12 20 18 26 26 15 22 21 17 11 8 12 12 8 5 5 10 15 15 18 14 5 13 25 23 22 21 37 27
6 5 4 4 4 2 4 6 4 5 6 4 1 4 6 10 20 11 24 28 27 25 12 16 14 12 11 11 12 11 14 9 10 14 12 14 10 8 14 26 34 28 23 27
10 5 1 2 3 5 1 5 3 2 2 4 4 7 13 18 14 16 20 22 25 23 13 7 7 9 12 7 4 5 5 6 8 13 14 13 13 12 12 18 20 29 26 28
5 3 4 2 3 4 2 3 11 6 5 6 8 8 9 13 7 6 24 28 27 25 18 16 14 11 12 8 6 6 6 6 8 14 17 18 17 17 14 15 24 29 27 28
2 3 3 3 3 6 1 10 8 3 5 13 12 11 14 5 11 29 37 38 33 31 27 23 18 11 14 11 8 7 8 8 9 15 18 19 20 20 19 15 18 22 21 23
4 3 3 2 2 6 5 3 1 4 12 15 19 18 21 25 26 27 29 31 34 32 31 28 25 20 12 9 12 10 10 10 10 13 13 17 18 18 20 18 15 18 18 22
1 3 3 6 5 5 1 5 4 13 18 18 20 23 25 26 27 29 28 29 32 34 31 30 30 26 21 16 13 11 10 11 14 14 13 18 20 15 15 14 15 11 15 20
5 2 1 3 2 1 13 5 15 17 18 21 24 27 28 29 30 31 31 30 31 30 32 27 27 25 24 22 20 18 17 11 14 13 13 15 16 15 14 13 11 10 9 11
7 3 2 4 7 13 4 10 23 24 23 25 26 24 28 27 31 31 33 30 29 28 27 30 25 26 23 24 22 24 25 17 13 13 12 14 15 14 12 10 10 7 7 8
6 6 4 5 6 7 17 23 24 25 29 31 31 34 31 29 30 30 29 31 28 28 24 22 21 17 20 17 16 19 22 18 13 10 11 12 16 13 8 6 4 4 4 3
Wind_Direction
226 157 230 237 221 223 236 236 249 266 274 213 252 257 267 278 293 272 265 251 253 259 265 262 252 226 204 198 200 201 198 199 198 195 192 191 190 192 195 208 214 224 218 227
3 231 230 228 237 239 245 254 272 281 262 185 267 263 265 280 272 286 294 253 245 243 258 288 284 217 203 198 198 200 203 201 203 207 203 199 193 196 206 212 220 222 219 233
194 243 228 229 252 249 250 241 252 246 268 282 283 286 310 304 303 313 297 280 273 272 274 271 283 226 204 199 197 201 206 209 207 209 209 201 197 201 210 213 211 211 222 230
216 257 244 250 239 247 251 239 239 238 200 250 218 276 300 270 296 293 306 318 309 289 278 273 270 228 214 202 203 208 212 213 215 213 208 210 203 202 208 209 205 214 221 214
240 261 290 292 238 249 245 266 261 254 225 180 288 13 265 1 322 300 291 301 303 317 309 285 268 230 227 206 205 210 216 214 214 213 213 210 206 207 208 206 206 211 213 212
217 270 216 254 307 7 315 298 276 13 154 253 208 175 256 251 283 316 336 11 25 13 9 340 290 233 221 210 207 210 212 213 214 213 214 209 206 205 203 202 206 212 213 211
341 278 302 16 7 359 21 40 334 315 301 234 215 190 223 73 33 40 58 36 30 30 32 34 10 234 220 215 212 209 208 206 208 206 205 205 210 207 205 203 206 208 208 207
121 82 33 12 76 301 318 106 158 282 267 290 294 214 186 76 78 71 51 37 38 41 40 44 41 49 224 208 197 199 201 198 199 207 206 205 213 214 215 211 206 207 206 206
54 248 7 44 19 34 331 44 281 252 270 228 243 83 23 25 29 45 48 39 30 38 43 44 49 48 52 52 233 225 212 212 213 219 213 212 219 224 219 218 214 205 202 205
340 326 19 348 61 30 31 309 346 16 337 292 299 348 93 13 348 32 34 32 40 44 46 47 50 47 48 41 43 41 217 258 242 241 238 222 203 216 220 216 215 213 212 213
80 136 299 31 34 313 7 348 303 148 169 218 329 294 13 173 224 13 43 40 45 49 47 46 46 50 45 48 42 49 52 338 243 243 227 222 228 237 240 226 220 215 220 244
318 132 50 224 263 291 242 37 10 99 292 198 194 260 91 1 349 356 45 39 48 57 52 52 52 45 47 39 33 24 23 11 310 272 247 248 241 235 241 235 225 229 232 230
291 41 11 353 4 21 67 330 319 280 93 254 149 262 151 192 256 226 237 310 312 331 59 86 72 58 51 39 39 30 14 2 345 326 280 248 243 235 236 232 230 236 236 230
72 77 136 178 208 286 303 329 345 14 257 229 243 281 310 265 255 263 274 288 294 299 321 47 85 52 262 47 37 30 18 3 357 339 314 249 237 237 227 237 234 279 249 247
87 73 57 263 284 295 307 318 310 311 271 252 274 286 313 307 299 275 274 281 283 273 256 281 280 173 74 60 48 15 15 3 354 352 333 270 230 230 230 239 246 257 251 238
4 254 38 289 282 288 295 289 278 281 290 320 298 304 359 335 1 1 354 287 266 265 254 252 263 250 236 293 6 15 29 10 1 358 1 356 266 226 227 234 248 239 237 237
144 155 118 259 285 327 313 297 289 254 59 297 59 281 346 357 351 5 357 28 321 281 262 240 251 240 238 265 299 348 3 16 352 356 360 0 335 231 224 252 219 249 233 222
156 139 144 269 31 263 227 32 22 319 88 75 188 345 14 356 341 11 16 6 5 11 270 242 242 246 257 278 288 306 290 327 344 342 359 352 339 269 234 248 236 244 213 214
184 135 190 154 193 280 296 28 355 331 308 12 357 340 342 349 335 292 345 353 344 346 342 325 298 291 308 312 309 337 343 7 338 327 337 331 318 331 273 240 243 220 229 239
100 88 141 133 128 249 196 294 297 286 250 22 346 314 328 349 325 283 315 318 317 318 319 332 285 262 288 303 307 314 324 325 330 310 314 315 317 320 310 264 249 249 249 246
36 79 185 221 225 269 332 306 327 206 255 333 342 329 320 293 272 292 298 297 295 291 292 293 307 312 263 278 282 314 289 302 317 309 306 309 304 301 302 298 271 251 243 244
172 158 215 83 77 276 340 37 172 285 317 321 310 308 301 296 293 293 295 298 297 294 277 273 281 285 284 273 270 292 318 311 309 299 311 298 300 292 290 295 294 258 246 245
13 161 209 175 224 174 70 278 207 328 316 308 307 305 305 298 296 296 291 291 291 292 287 272 270 275 284 272 275 283 292 293 304 296 300 305 302 303 292 291 299 294 246 242
321 328 200 8 306 324 322 197 327 332 319 315 310 305 303 294 294 297 293 287 288 291 287 286 278 270 268 269 267 269 275 283 277 277 282 293 307 306 303 312 321 309 285 256
232 313 219 267 275 329 272 296 323 318 316 314 316 303 307 302 295 298 296 292 291 287 283 280 275 274 274 264 257 259 266 276 277 274 274 289 298 292 291 300 309 316 292 276
200 193 166 229 223 282 284 318 317 309 311 313 311 301 298 307 298 304 301 304 294 286 285 271 273 268 260 263 260 260 265 259 240 255 274 284 288 272 257 249 293 312 38 17